Regional Weather Roundup
Issued by NWS

Home | Current Version | Previous Version | Text Only | Print | Product List | Glossary On
Versions: 1 2 3 4 5 6 7 8 9 10 11 12 13 14 15 16 17 18 19 20 21 22 23 24 25 26 27 28 29 30 31 32 33 34 35 36 37 38 39 40 41 42 43 44 45 46 47 48 49 50
000
ASUS43 KLMK 231010
RWRKY
KENTUCKY REGIONAL WEATHER ROUNDUP
NATIONAL WEATHER SERVICE LOUISVILLE KY
600 AM EDT SAT AUG 23 2014

NOTE "FAIR" INDICATES FEW OR NO CLOUDS BELOW 12,000 FEET
WITH NO SIGNIFICANT WEATHER AND/OR OBSTRUCTIONS TO VISIBILITY.

KYZ001>023-026-027-061>063-070>075-231100-
WESTERN AND SOUTH CENTRAL KENTUCKY

CITY           SKY/WX    TMP DP  RH WIND       PRES   REMARKS
PADUCAH        CLEAR     79  74  84 CALM      29.95S
HENDERSON      MOCLDY    75  70  83 S6        29.95F
OWENSBORO      CLOUDY    74  74 100 S3        29.98R
HOPKINSVILLE   MOCLDY    75  74  97 E6        30.01S
BOWLING GREEN  CLOUDY    75  70  84 CALM      30.00S
GLASGOW        CLOUDY    74  74 100 CALM      30.01R
$$

KYZ024-025-028>034-038-045-046-053-231100-
NORTH CENTRAL KENTUCKY

CITY           SKY/WX    TMP DP  RH WIND       PRES   REMARKS
LOUISVILLE/SDF MOCLDY    74  72  93 SE3       29.98S
LOUISVILLE/LOU MOCLDY    73  72  96 CALM      29.99R FOG
FORT KNOX      LGT RAIN  72  70  94 CALM      29.99R FOG
$$

KYZ035>037-039>044-047>052-055>060-089>105-231100-
NORTHEAST KENTUCKY

CITY           SKY/WX    TMP DP  RH WIND       PRES   REMARKS
LEXINGTON      CLOUDY    71  68  90 SW3       30.01R
COVINGTON      FOG       72  70  94 CALM      29.99R VSB 1/4
FRANKFORT      PTCLDY    69  68  96 CALM      29.99R
$$

KYZ054-064>069-076>088-106>120-231100-
SOUTHEAST KENTUCKY

CITY           SKY/WX    TMP DP  RH WIND       PRES   REMARKS
JACKSON        FOG       69  68  96 CALM      30.02S VSB 1/4
LONDON         PTCLDY    75  71  87 CALM      30.02S
SOMERSET       PTCLDY    72  72 100 CALM      30.02S
MIDDLESBORO    MOCLDY    71  70  98 CALM      30.02S
MONTICELLO     FOG       72  72 100 CALM      30.03R VSB 1/2
$$



USA.gov is the U.S. government's official web portal to all federal, state and local government web resources and services.